This is the latest recevied weather packets stored in our database for station/object WB6ANP. If no packets are shown the sender has not sent any weather packets the latest 10 day(s).
| Time | Temp. | Humidity | Pressure | Rain* | Wind** | Luminosity | Snow |
|---|---|---|---|---|---|---|---|
| 1777313031 | 31.11° C | 47% | 1009 hPa | 0 mm | - | 912 W/m² | - |
| 1777312727 | 31.11° C | 52% | 1009 hPa | 0 mm | - | 904 W/m² | - |
| 1777312424 | 31.11° C | 53% | 1009 hPa | 0 mm | - | 901 W/m² | - |
| 1777312122 | 31.11° C | 52% | 1009 hPa | 0 mm | - | 897 W/m² | - |
| 1777311819 | 31.11° C | 52% | 1009.1 hPa | 0 mm | - | 898 W/m² | - |
| 1777311516 | 31.11° C | 51% | 1009 hPa | 0 mm | - | 893 W/m² | - |
| 1777311213 | 30.56° C | 53% | 1009.1 hPa | 0 mm | - | 888 W/m² | - |
| 1777310911 | 30.56° C | 52% | 1009 hPa | 0 mm | - | 896 W/m² | - |
| 1777310608 | 30.56° C | 54% | 1009.1 hPa | 0 mm | - | 882 W/m² | - |
| 1777310306 | 30.56° C | 55% | 1009.1 hPa | 0 mm | - | 888 W/m² | - |
| 1777310002 | 30.56° C | 54% | 1009.1 hPa | 0 mm | - | 879 W/m² | - |
| 1777309700 | 30.56° C | 54% | 1009.2 hPa | 0 mm | - | 852 W/m² | - |
| 1777309397 | 30.56° C | 56% | 1009.1 hPa | 0 mm | - | 877 W/m² | - |
| 1777309095 | 30° C | 57% | 1009 hPa | 0 mm | - | 824 W/m² | - |
| 1777308793 | 30° C | 56% | 1009.1 hPa | 0 mm | - | 783 W/m² | - |
| 1777308488 | 30° C | 59% | 1009.1 hPa | 0 mm | - | 826 W/m² | - |
| 1777308183 | 29.44° C | 63% | 1008.9 hPa | 0 mm | - | 790 W/m² | - |
| 1777307879 | 30° C | 61% | 1008.9 hPa | 0 mm | - | 790 W/m² | - |
| 1777307578 | 29.44° C | 64% | 1008.8 hPa | 0 mm | - | 818 W/m² | - |
| 1777307274 | 29.44° C | 66% | 1009 hPa | 0 mm | - | 784 W/m² | - |
| 1777306971 | 29.44° C | 62% | 1008.9 hPa | 0 mm | - | 778 W/m² | - |
| 1777306669 | 28.89° C | 66% | 1009 hPa | 0 mm | - | 775 W/m² | - |
| 1777306366 | 29.44° C | 66% | 1009 hPa | 0 mm | - | 554 W/m² | - |
| 1777306059 | 29.44° C | 66% | 1008.7 hPa | 0 mm | - | 746 W/m² | - |
| 1777305757 | 28.89° C | 70% | 1008.6 hPa | 0 mm | - | 736 W/m² | - |
* Rain latest hour (hover to see other rain measurements)
** Current wind speed in m/s (hover to see current wind gust speed)